Weather History for KPUW - October, 2013

Change the Weather History Date:

Thursday, October 10, 2013

  Actual Average Record
Temperature  
Mean Temperature 44 °F 50 °F  
Max Temperature 54 °F 62 °F 84 °F (1996)
Min Temperature 34 °F 37 °F 11 °F (2009)
Degree Days  
Heating Degree Days 21 16  
Month to date heating degree days 192 139  
Since 1 July heating degree days 411 500  
Cooling Degree Days 0 0  
Month to date cooling degree days 0 0  
Year to date cooling degree days 334 212  
Moisture  
Dew Point 35 °F    
Average Humidity 75    
Maximum Humidity 100    
Minimum Humidity 50    
Precipitation  
Precipitation 0.00 in 0.04 in 0.76 in (1955)
Month to date precipitation 0.13 0.34  
Year to date precipitation 11.67 12.03  
Sea Level Pressure  
Sea Level Pressure 29.93 in    
Wind  
Wind Speed 4 mph (WSW)    
Max Wind Speed 14 mph    
Max Gust Speed 17 mph    
Visibility 7 miles    
Events Fog    
T = Trace of Precipitation, MM = Missing Value Source: NWS Daily Summary

Daily Weather History Graph

Daily Weather History Graph

Search for Another Location

Airport or City:

Trip Planner

Search our weather history database for the weather conditions in past years. The results will help you decide how hot, cold, wet, or windy it might be!

Date:

Astronomy

Oct. 10, 2013 Rise Set
Actual Time 6:59 AM PDT 6:10 PM PDT
Civil Twilight 6:29 AM PDT 6:40 PM PDT
Nautical Twilight 5:54 AM PDT 7:15 PM PDT
Astronomical Twilight 5:19 AM PDT 7:50 PM PDT
Moon 1:09 PM PDT (10/10) 10:39 PM PDT (10/10)
Length of Visible Light 12h 11m
Length of Day
11h 10m
Waxing Crescent, 37% of the Moon is Illuminated
Oct 10
Waxing Crescent
Oct 11
First Quarter
Oct 18
Full
Oct 26
Last Quarter
Nov 3
New

Hourly Weather History & Observations

Time (PDT) Temp. Windchill Dew Point Humidity Pressure Visibility Wind Dir Wind Speed Gust Speed Precip Events Conditions
12:01 AM 30.2 °F - 28.4 °F 93% 29.93 in 3.0 mi Calm Calm - N/A   Overcast
12:53 AM 33.1 °F - 30.9 °F 92% 29.96 in 7.0 mi Calm Calm - N/A   Overcast
1:18 AM 33.8 °F - 33.8 °F 100% 29.92 in 1.8 mi Calm Calm - N/A   Overcast
1:33 AM 33.8 °F - 33.8 °F 100% 29.93 in 0.2 mi Calm Calm - N/A Fog Fog
1:53 AM 35.1 °F - 34.0 °F 96% 29.96 in 0.2 mi Calm Calm - N/A Fog Fog
2:39 AM 33.8 °F - 33.8 °F 100% 29.92 in 2.0 mi Calm Calm - N/A   Mostly Cloudy
2:44 AM 33.8 °F - 33.8 °F 100% 29.91 in 3.0 mi Calm Calm - N/A   Scattered Clouds
2:51 AM 33.8 °F - 33.8 °F 100% 29.91 in 2.5 mi Calm Calm - N/A   Mostly Cloudy
2:53 AM 34.0 °F - 33.1 °F 96% 29.95 in 2.5 mi Calm Calm - N/A   Mostly Cloudy
3:01 AM 33.8 °F - 33.8 °F 100% 29.91 in 3.0 mi Calm Calm - N/A   Scattered Clouds
3:15 AM 33.8 °F - 33.8 °F 100% 29.90 in 3.0 mi Calm Calm - N/A   Mostly Cloudy
3:33 AM 35.6 °F - 33.8 °F 93% 29.90 in 5.0 mi Calm Calm - N/A   Scattered Clouds
3:53 AM 35.1 °F - 33.1 °F 92% 29.93 in 5.0 mi Calm Calm - N/A   Clear
4:53 AM 36.0 °F - 35.1 °F 97% 29.93 in 6.0 mi Calm Calm - N/A   Overcast
5:24 AM 35.6 °F - 35.6 °F 100% 29.89 in 6.0 mi Calm Calm - N/A   Mostly Cloudy
5:40 AM 37.4 °F - 35.6 °F 93% 29.89 in 7.0 mi Calm Calm - N/A   Overcast
5:53 AM 37.9 °F - 36.0 °F 93% 29.93 in 7.0 mi Calm Calm - N/A   Overcast
6:05 AM 37.4 °F - 35.6 °F 93% 29.89 in 7.0 mi Calm Calm - N/A   Overcast
6:14 AM 37.4 °F - 35.6 °F 93% 29.89 in 7.0 mi Calm Calm - N/A   Overcast
6:30 AM 39.2 °F - 37.4 °F 93% 29.88 in 7.0 mi Calm Calm - N/A   Overcast
6:53 AM 39.0 °F - 37.0 °F 93% 29.92 in 8.0 mi Calm Calm - N/A   Overcast
7:27 AM 39.2 °F - 37.4 °F 93% 29.89 in 5.0 mi Calm Calm - N/A   Overcast
7:42 AM 39.2 °F - 37.4 °F 93% 29.90 in 5.0 mi Calm Calm - N/A   Overcast
7:53 AM 39.9 °F - 37.9 °F 93% 29.94 in 6.0 mi Calm Calm - N/A   Overcast
8:53 AM 42.1 °F - 37.9 °F 85% 29.96 in 6.0 mi Calm Calm - N/A   Overcast
9:53 AM 45.0 °F 43.5 °F 39.0 °F 80% 29.95 in 9.0 mi SSE 3.5 mph - N/A   Overcast
10:53 AM 48.9 °F - 37.9 °F 66% 29.94 in 10.0 mi SSE 6.9 mph - N/A   Mostly Cloudy
11:41 AM 50.0 °F - 37.4 °F 62% 29.90 in 10.0 mi WSW 8.1 mph - N/A   Mostly Cloudy
11:53 AM 52.0 °F - 37.9 °F 59% 29.94 in 10.0 mi SSW 6.9 mph - N/A   Mostly Cloudy
12:12 PM 51.8 °F - 37.4 °F 58% 29.90 in 10.0 mi SW 6.9 mph - N/A   Mostly Cloudy
12:53 PM 52.0 °F - 37.0 °F 57% 29.93 in 10.0 mi WSW 8.1 mph - N/A   Mostly Cloudy
1:53 PM 52.0 °F - 37.9 °F 59% 29.92 in 10.0 mi WSW 8.1 mph - N/A   Overcast
2:53 PM 52.0 °F - 35.1 °F 53% 29.94 in 10.0 mi West 9.2 mph - N/A   Overcast
3:53 PM 53.1 °F - 36.0 °F 52% 29.94 in 10.0 mi West 8.1 mph - N/A   Overcast
4:53 PM 52.0 °F - 35.1 °F 53% 29.95 in 10.0 mi West 10.4 mph - N/A   Overcast
5:53 PM 51.1 °F - 36.0 °F 56% 29.95 in 10.0 mi West 4.6 mph - N/A   Overcast
6:53 PM 50.0 °F - 34.0 °F 54% 29.96 in 10.0 mi WSW 5.8 mph - N/A   Overcast
7:53 PM 48.0 °F - 34.0 °F 58% 29.98 in 10.0 mi West 5.8 mph - N/A   Overcast
8:53 PM 46.9 °F - 35.1 °F 63% 29.99 in 10.0 mi WSW 5.8 mph - N/A   Overcast
9:53 PM 48.0 °F - 35.1 °F 61% 30.00 in 10.0 mi West 6.9 mph - N/A   Overcast
10:53 PM 44.1 °F - 35.1 °F 71% 30.01 in 10.0 mi Calm Calm - N/A   Overcast
11:53 PM 45.0 °F 43.5 °F 36.0 °F 71% 30.02 in 10.0 mi NE 3.5 mph - N/A   Overcast